Regional Weather Roundup
Issued by NWS State College, PA

Home | Current Version | Previous Version | Text Only | Print | Product List | Glossary On
Versions: 1 2 3 4 5 6 7 8 9 10 11 12 13 14 15 16 17 18 19 20 21 22 23 24 25 26 27 28 29 30 31 32 33 34 35 36 37 38 39 40 41 42 43 44 45 46 47 48 49 50
786
ASUS41 KCTP 221910
RWRCTP

REGIONAL WEATHER ROUNDUP
NATIONAL WEATHER SERVICE STATE COLLEGE PA
300 PM EDT THU JUN 22 2017

Note: "fair" indicates few or no clouds below 12,000 feet with no
significant weather and/or obstructions to visibility.

* = STATION THAT DOES NOT REPORT PRECIPITATION /E.G. RAIN...SNOW...ETC/
    THUNDER OR FOG.

PAZ002>004-007>009-013>016-020>023-029>032-222000-
WESTERN PENNSYLVANIA

CITY           SKY/WX    TMP DP  RH WIND       PRES   REMARKS
ERIE           PTSUNNY   81  70  69 SW12G21   29.91F
MEADVILLE      LGT RAIN  73  71  93 S6        29.96F
FRANKLIN*      PTSUNNY   75  68  78 SW5       29.99F
NEW CASTLE     CLOUDY    83  69  62 W5        29.97F
BEAVER COUNTY  PTSUNNY   84  70  61 W9        29.98F
BUTLER*        CLOUDY    81  72  74 W5        29.97F
PITTSBURGH INT CLOUDY    85  71  63 SW12G18   29.97F
PITTSBURGH     CLOUDY    83  69  62 S12       29.98F
INDIANA*       PTSUNNY   79  72  78 N3        30.03R
LATROBE        PTSUNNY   82  72  69 SW12      30.01F
WASHINGTON CO* CLOUDY    82  70  65 SW10      30.03S
$$

PAZ004>006-010>012-017>019-024>028-033>037-041-042-045-046-049>053-222000-
CENTRAL PENNSYLVANIA

CITY           SKY/WX    TMP DP  RH WIND       PRES   REMARKS
BRADFORD       HVY RAIN  69  68  96 S3        30.01F FOG
DUBOIS         CLOUDY    79  67  66 SW13      29.99F
CLEARFIELD     CLOUDY    81  67  62 SW9       29.99F
JOHNSTOWN      CLOUDY    79  68  69 W10       30.05F
ALTOONA        CLOUDY    85  67  54 NW9       30.01F
STATE COLLEGE  MOSUNNY   84  68  58 SW7       29.98F
WILLIAMSPORT   PTSUNNY   86  67  52 SE5       29.94F
SELINSGROVE    MOSUNNY   87  67  51 VRB7G17   29.96F
FT INDIANTOWN  PTSUNNY   87  65  48 W8G20     29.96F
CAPITAL CITY   MOSUNNY   89  65  44 SW6       29.95F
HARRISBURG     PTSUNNY   88  67  49 W9        29.94F
YORK           CLOUDY    85  68  56 W8        29.97F
$$

PAZ038>040-043-044-047-048-054-055-060>062-067>071-222000-
EASTERN PENNSYLVANIA

CITY           SKY/WX    TMP DP  RH WIND       PRES   REMARKS
SCRANTON       MOSUNNY   84  61  45 W16G22    29.97S
MOUNT POCONO   SUNNY     77  56  48 W9G22     30.02F
ALLENTOWN      SUNNY     87  64  46 W10       29.96F
QUAKERTOWN*    PTCLDY    86  64  48 SW6       29.98S
READING        MOSUNNY   88  68  51 SW9       29.95F
LANCASTER      MOSUNNY   88  69  53 W8        29.96F
COATESVILLE    MOCLDY    84  68  58 VRB6      30.00S
POTTSTOWN      PTSUNNY   85  66  53 VRB7      29.97F
BLUE BELL      MOSUNNY   86  64  48 NW6       29.98S
DOYLESTOWN     SUNNY     87  63  44 W5        29.96F
WILLOW GROVE   NOT AVBL
NORTH PHILA    MOSUNNY   89  64  43 SW12      29.97F
PHILADELPHIA   PTSUNNY   88  64  44 SW14      29.96F
$$




USA.gov is the U.S. government's official web portal to all federal, state and local government web resources and services.